Terug naar catalogus

FENGYUN 1C DEB

ActiefSSO
NORAD 30679·DEBRIS·🇨🇳 China

Gelanceerd May 10, 1999 vanaf Taiyuan Satellite Launch Center

Loading…

Volgende Passages (komende 24 uur)

TLE

VersSource: Space-Track

Epoch: Sep 13, 2026, 19:03 UTC

1 30679U 99025AQM 26256.79443316  .00000310  00000-0  30385-3 0  9994
2 30679  99.3527 310.8059 0171694  72.1467 356.0220 13.80051444983135

Volg FENGYUN 1C DEB in realtime met AllMySat

Download on the App Store